Flag Weather past 2 weeks in Modesto, California, U.S.A.

Now
50 °F

Fog.


Feels Like: 45 °F
Forecast: 46 / 61 °F
Wind: 14 mph from Northwest

Location: Modesto City-County-Sham Field

Current Time: Nov 23, 2014 at 6:49:49 AM

Latest Report: Nov 23, 2014 at 5:53 AM


Visibility: 6 mi

Pressure: 30.24 "Hg

Humidity: 89%

Dew point: 47 °F

Location of ModestoLocation

Historic Weather in Modesto — Graph

°F

Modesto temperature yesterday

Maximum temperature yesterday: 61 °F (at 3:53 PM)
Minimum temperature yesterday: 50 °F (at 9:53 PM)
Average temperature yesterday: 55 °F

Past Weeks' High & Low Weather Summary

 TemperatureHumidityPressure
High76 °F (Nov 8, 1:53 PM)100% (Nov 10, 6:53 AM)30.27 "Hg (Nov 10, 6:53 AM)
Low1 °F (Nov 21, 7:53 AM)34% (Nov 19, 1:53 PM)29.76 "Hg (Nov 10, 4:53 PM)
Average56 °F79%30.05 "Hg
* Reported Nov 8 5:53 AM — Nov 23 5:04 AM, Modesto, Weather by CustomWeather, © 2014

Note: Actual official high and low records may vary slightly from our data, if they occured in-between our weather recording intervals... More about our weather records

Advertising

Modesto weather history for previous 24 hours

 ConditionsComfort  
Time TempWeatherWind HumidityBarometerVisibility
5:04 AM
Nov 23
51 °FFog.16 mph86%30.24 "Hg6 mi
4:53 AM51 °FFog.16 mph86%30.24 "Hg6 mi
3:53 AM52 °FFog.12 mph89%30.23 "Hg5 mi
2:53 AM52 °FFog.14 mph97%30.22 "Hg6 mi
1:53 AM53 °FFog.14 mph96%30.22 "Hg5 mi
12:53 AM54 °FFog.12 mph93%30.23 "Hg1 mi
11:53 PM
Nov 22
53 °FFog.12 mph93%30.23 "Hg0 mi
10:53 PM52 °FFog.9 mph93%30.22 "Hg0 mi
9:53 PM50 °FFog.7 mph93%30.20 "Hg1 mi
8:53 PM51 °FFog.3 mph92%30.18 "Hg1 mi
7:53 PM52 °FFog.No wind89%30.17 "Hg3 mi
6:53 PM53 °FFog.No wind89%30.15 "Hg3 mi
5:53 PM55 °FFog.No wind90%30.14 "Hg4 mi
4:53 PM58 °FPassing clouds.6 mph84%30.14 "Hg5 mi
3:53 PM61 °FScattered clouds.7 mphN/A30.13 "Hg5 mi
2:59 PM59 °FScattered clouds.9 mphN/A30.13 "Hg5 mi
1:53 PM57 °FMostly cloudy.3 mphN/A30.14 "Hg4 mi
1:04 PM57 °FLight rain. Mostly cloudy.10 mphN/A30.12 "Hg2 mi
12:53 PM55 °FLight rain. Mostly cloudy.5 mphN/A30.13 "Hg2 mi
11:53 AM55 °FLight rain. Mostly cloudy.12 mphN/A30.11 "Hg1 mi
10:53 AM55 °FLight rain. Fog.10 mph87%30.14 "Hg2 mi
9:53 AM55 °FMostly cloudy.12 mph80%30.14 "Hg3 mi
8:53 AM55 °FLight rain. Mostly cloudy.10 mph77%30.14 "Hg4 mi
7:53 AM54 °FOvercast.10 mph77%30.13 "Hg5 mi
6:53 AM54 °FOvercast.14 mph77%30.12 "Hg6 mi
Weather by CustomWeather, © 2014

See weather overviewHow to use our weather pages